LOG415 EGNS-EGLL

Flight info

Callsign LOG415
Flight time 0h 41m
Altitude 31000
Route TIMIS Q39 NOMSU UQ4 WAL UY53 NUGRA
Aircraft E45X/M-SABDFGRW/S

Departure

Time 2026-04-20 18:20
Airport Isle of Man Airport (EGNS)

Arrival

Time 2026-04-20 19:01
Airport London Heathrow Airport (EGLL)
Time Latitude Longitude Altitude Speed Heading
2026-04-20 17:57 54.08632 -4.63257 4 ft 0 kts 226°
2026-04-20 18:10 54.08632 -4.63258 3 ft 0 kts 226°
2026-04-20 18:10 54.08633 -4.63255 3 ft 1 kts 222°
2026-04-20 18:11 54.08646 -4.63244 3 ft 2 kts 185°
2026-04-20 18:11 54.08660 -4.63247 3 ft 2 kts 153°
2026-04-20 18:11 54.08672 -4.63263 3 ft 2 kts 129°
2026-04-20 18:11 54.08678 -4.63274 3 ft 0 kts 132°
2026-04-20 18:14 54.08674 -4.63267 3 ft 2 kts 131°
2026-04-20 18:14 54.08658 -4.63230 3 ft 5 kts 109°
2026-04-20 18:14 54.08638 -4.63156 3 ft 8 kts 123°
2026-04-20 18:14 54.08591 -4.63068 3 ft 11 kts 134°
2026-04-20 18:15 54.08509 -4.63015 3 ft 14 kts 167°
2026-04-20 18:15 54.08423 -4.63012 3 ft 13 kts 222°
2026-04-20 18:15 54.08392 -4.63174 3 ft 16 kts 257°
2026-04-20 18:15 54.08366 -4.63378 3 ft 15 kts 258°
2026-04-20 18:16 54.08350 -4.63513 3 ft 9 kts 259°
2026-04-20 18:16 54.08342 -4.63573 3 ft 0 kts 253°
2026-04-20 18:18 54.08340 -4.63587 3 ft 3 kts 253°
2026-04-20 18:18 54.08328 -4.63637 3 ft 6 kts 245°
2026-04-20 18:18 54.08301 -4.63721 3 ft 9 kts 239°
2026-04-20 18:19 54.08261 -4.63840 3 ft 13 kts 240°
2026-04-20 18:19 54.08179 -4.63890 4 ft 14 kts 162°
2026-04-20 18:19 54.08163 -4.63742 4 ft 15 kts 77°
2026-04-20 18:19 54.08213 -4.63308 3 ft 75 kts 76°
2026-04-20 18:20 54.08371 -4.62052 14 ft 136 kts 78°
2026-04-20 18:20 54.08569 -4.60463 636 ft 139 kts 81°
2026-04-20 18:20 54.08524 -4.58803 1291 ft 150 kts 111°
2026-04-20 18:20 54.07891 -4.57376 2050 ft 153 kts 133°
2026-04-20 18:21 54.06967 -4.56183 2154 ft 185 kts 144°
2026-04-20 18:21 54.05736 -4.55006 2189 ft 220 kts 150°
2026-04-20 18:21 54.04292 -4.53804 2429 ft 243 kts 152°
2026-04-20 18:21 54.02743 -4.52573 3490 ft 249 kts 152°
2026-04-20 18:22 54.01213 -4.51374 4771 ft 245 kts 152°
2026-04-20 18:22 53.99680 -4.50174 5791 ft 250 kts 153°
2026-04-20 18:22 53.98108 -4.48948 6769 ft 255 kts 153°
2026-04-20 18:22 53.96480 -4.47676 7493 ft 269 kts 153°
2026-04-20 18:23 53.94816 -4.46383 8637 ft 265 kts 153°
2026-04-20 18:23 53.93159 -4.45094 9643 ft 266 kts 154°
2026-04-20 18:23 53.91481 -4.43790 10502 ft 272 kts 154°
2026-04-20 18:23 53.89727 -4.42428 11261 ft 282 kts 154°
2026-04-20 18:24 53.87922 -4.40999 11871 ft 297 kts 150°
2026-04-20 18:24 53.86362 -4.38665 12497 ft 309 kts 125°
2026-04-20 18:24 53.85152 -4.35597 13154 ft 320 kts 124°
2026-04-20 18:24 53.83628 -4.32727 13753 ft 333 kts 138°
2026-04-20 18:25 53.82134 -4.29692 14339 ft 344 kts 124°
2026-04-20 18:25 53.80796 -4.26328 14952 ft 353 kts 124°
2026-04-20 18:25 53.79413 -4.22867 15695 ft 358 kts 124°
2026-04-20 18:25 53.78025 -4.19399 16426 ft 362 kts 124°
2026-04-20 18:26 53.76600 -4.15850 17133 ft 367 kts 124°
2026-04-20 18:26 53.75161 -4.12274 17816 ft 372 kts 124°
2026-04-20 18:26 53.73719 -4.08706 18540 ft 374 kts 124°
2026-04-20 18:26 53.72254 -4.05096 19345 ft 374 kts 124°
2026-04-20 18:27 53.70799 -4.01524 20136 ft 374 kts 124°
2026-04-20 18:27 53.69316 -3.97892 20918 ft 374 kts 124°
2026-04-20 18:27 53.67857 -3.94318 21391 ft 385 kts 124°
2026-04-20 18:27 53.66295 -3.90448 21472 ft 407 kts 122°
2026-04-20 18:28 53.64800 -3.86569 22749 ft 386 kts 122°
2026-04-20 18:28 53.63393 -3.82914 23889 ft 370 kts 122°
2026-04-20 18:28 53.62013 -3.79330 24527 ft 372 kts 122°
2026-04-20 18:28 53.60603 -3.75669 25115 ft 374 kts 122°
2026-04-20 18:29 53.59193 -3.72014 25774 ft 374 kts 122°
2026-04-20 18:29 53.57795 -3.68396 26449 ft 375 kts 122°
2026-04-20 18:29 53.56367 -3.64704 27108 ft 377 kts 123°
2026-04-20 18:29 53.54918 -3.60965 27459 ft 391 kts 123°
2026-04-20 18:30 53.53402 -3.57057 27492 ft 413 kts 123°
2026-04-20 18:30 53.51819 -3.52983 27446 ft 424 kts 123°
2026-04-20 18:30 53.50156 -3.48713 27437 ft 433 kts 123°
2026-04-20 18:30 53.48496 -3.44454 27444 ft 439 kts 123°
2026-04-20 18:31 53.46919 -3.40385 28482 ft 391 kts 123°
2026-04-20 18:31 53.45455 -3.36654 29023 ft 385 kts 123°
2026-04-20 18:31 53.44001 -3.32957 29549 ft 384 kts 124°
2026-04-20 18:31 53.42511 -3.29164 30106 ft 383 kts 124°
2026-04-20 18:32 53.41050 -3.25446 30634 ft 384 kts 124°
2026-04-20 18:32 53.39592 -3.21742 31209 ft 385 kts 124°
2026-04-20 18:32 53.38092 -3.17937 31439 ft 399 kts 124°
2026-04-20 18:32 53.36531 -3.13983 31476 ft 418 kts 124°
2026-04-20 18:33 53.34893 -3.09839 31447 ft 438 kts 124°
2026-04-20 18:33 53.33205 -3.05578 31401 ft 453 kts 124°
2026-04-20 18:33 53.31425 -3.01088 31391 ft 465 kts 124°
2026-04-20 18:33 53.29630 -2.96571 31386 ft 467 kts 124°
2026-04-20 18:34 53.26040 -2.87560 31373 ft 469 kts 124°
2026-04-20 18:34 53.22434 -2.78544 31371 ft 471 kts 124°
2026-04-20 18:35 53.18794 -2.69472 31375 ft 472 kts 124°
2026-04-20 18:35 53.15154 -2.60436 31377 ft 473 kts 124°
2026-04-20 18:36 53.11491 -2.51374 31380 ft 475 kts 124°
2026-04-20 18:36 53.07802 -2.42279 31382 ft 476 kts 124°
2026-04-20 18:37 53.03970 -2.33339 31378 ft 476 kts 132°
2026-04-20 18:37 52.99009 -2.26153 31376 ft 471 kts 150°
2026-04-20 18:38 52.96243 -2.23303 31249 ft 465 kts 151°
2026-04-20 18:38 52.93549 -2.20490 31027 ft 446 kts 151°
2026-04-20 18:38 52.90992 -2.17816 30803 ft 428 kts 151°
2026-04-20 18:38 52.88532 -2.15245 30577 ft 413 kts 151°
2026-04-20 18:39 52.86099 -2.12707 30344 ft 413 kts 151°
2026-04-20 18:39 52.83652 -2.10156 30106 ft 416 kts 151°
2026-04-20 18:39 52.81189 -2.07593 29721 ft 425 kts 152°
2026-04-20 18:39 52.78685 -2.04989 29309 ft 433 kts 152°
2026-04-20 18:40 52.76124 -2.02329 28876 ft 438 kts 152°
2026-04-20 18:40 52.73531 -1.99639 28407 ft 439 kts 152°
2026-04-20 18:40 52.70967 -1.96985 27944 ft 440 kts 152°
2026-04-20 18:40 52.68386 -1.94315 27476 ft 441 kts 152°
2026-04-20 18:41 52.65807 -1.91652 27003 ft 441 kts 152°
2026-04-20 18:41 52.63200 -1.88963 26513 ft 442 kts 152°
2026-04-20 18:41 52.60591 -1.86276 26022 ft 442 kts 152°
2026-04-20 18:41 52.58011 -1.83621 25551 ft 441 kts 152°
2026-04-20 18:42 52.55424 -1.80967 25172 ft 437 kts 152°
2026-04-20 18:42 52.52880 -1.78359 24797 ft 433 kts 152°
2026-04-20 18:42 52.50325 -1.75743 24418 ft 430 kts 152°
2026-04-20 18:42 52.47789 -1.73147 24040 ft 427 kts 151°
2026-04-20 18:43 52.45260 -1.70564 23682 ft 424 kts 152°
2026-04-20 18:43 52.42788 -1.68046 23405 ft 419 kts 151°
2026-04-20 18:43 52.40350 -1.65562 23130 ft 414 kts 151°
2026-04-20 18:43 52.37921 -1.63092 22854 ft 410 kts 151°
2026-04-20 18:44 52.35516 -1.60648 22584 ft 406 kts 151°
2026-04-20 18:44 52.33133 -1.58233 22322 ft 402 kts 151°
2026-04-20 18:44 52.30773 -1.55845 22062 ft 398 kts 151°
2026-04-20 18:44 52.28420 -1.53465 21800 ft 395 kts 151°
2026-04-20 18:45 52.26110 -1.51128 21538 ft 392 kts 151°
2026-04-20 18:45 52.23786 -1.48782 21100 ft 395 kts 150°
2026-04-20 18:45 52.21498 -1.46384 20635 ft 399 kts 144°
2026-04-20 18:45 52.19370 -1.43441 20114 ft 400 kts 140°
2026-04-20 18:46 52.17273 -1.40504 19481 ft 394 kts 140°
2026-04-20 18:46 52.15234 -1.37654 18841 ft 388 kts 140°
2026-04-20 18:46 52.13195 -1.34811 18192 ft 382 kts 141°
2026-04-20 18:46 52.11200 -1.32032 17539 ft 377 kts 140°
2026-04-20 18:47 52.09220 -1.29278 16905 ft 370 kts 140°
2026-04-20 18:47 52.07307 -1.26620 16462 ft 359 kts 140°
2026-04-20 18:47 52.05444 -1.24035 16038 ft 348 kts 140°
2026-04-20 18:47 52.03634 -1.21527 15620 ft 339 kts 140°
2026-04-20 18:48 52.01876 -1.19093 15343 ft 325 kts 140°
2026-04-20 18:48 52.00204 -1.16780 15325 ft 315 kts 140°
2026-04-20 18:48 51.98535 -1.14474 15333 ft 318 kts 139°
2026-04-20 18:48 51.96817 -1.12103 15024 ft 331 kts 139°
2026-04-20 18:49 51.95045 -1.09657 14726 ft 339 kts 139°
2026-04-20 18:49 51.93289 -1.07238 14441 ft 327 kts 139°
2026-04-20 18:49 51.91568 -1.04868 14082 ft 319 kts 139°
2026-04-20 18:49 51.89886 -1.02555 13480 ft 320 kts 140°
2026-04-20 18:50 51.88204 -1.00243 12871 ft 320 kts 140°
2026-04-20 18:50 51.86504 -0.97910 12249 ft 320 kts 139°
2026-04-20 18:50 51.85026 -0.95317 11590 ft 314 kts 120°
2026-04-20 18:50 51.84076 -0.92259 10956 ft 296 kts 115°
2026-04-20 18:51 51.83190 -0.89359 10323 ft 284 kts 115°
2026-04-20 18:51 51.82133 -0.86761 9694 ft 275 kts 137°
2026-04-20 18:51 51.80513 -0.85340 9108 ft 266 kts 168°
2026-04-20 18:51 51.78687 -0.85197 8518 ft 260 kts 181°
2026-04-20 18:52 51.76951 -0.85284 8371 ft 240 kts 180°
2026-04-20 18:52 51.75208 -0.85394 8317 ft 253 kts 181°
2026-04-20 18:52 51.73506 -0.85521 8297 ft 240 kts 181°
2026-04-20 18:52 51.71829 -0.85664 8036 ft 241 kts 181°
2026-04-20 18:53 51.70098 -0.85826 7774 ft 262 kts 181°
2026-04-20 18:53 51.68262 -0.86000 7203 ft 270 kts 181°
2026-04-20 18:53 51.66356 -0.86178 6651 ft 276 kts 181°
2026-04-20 18:53 51.64465 -0.86356 6403 ft 267 kts 181°
2026-04-20 18:54 51.62647 -0.86532 6186 ft 261 kts 181°
2026-04-20 18:54 51.60831 -0.86713 5831 ft 261 kts 181°
2026-04-20 18:54 51.59031 -0.86897 5427 ft 256 kts 181°
2026-04-20 18:54 51.57304 -0.87086 5110 ft 240 kts 181°
2026-04-20 18:55 51.55689 -0.87277 5125 ft 239 kts 181°
2026-04-20 18:55 51.54043 -0.87471 5116 ft 241 kts 181°
2026-04-20 18:55 51.52368 -0.87669 5114 ft 243 kts 181°
2026-04-20 18:55 51.50683 -0.87622 5110 ft 239 kts 161°
2026-04-20 18:56 51.49330 -0.86290 5106 ft 231 kts 128°
2026-04-20 18:56 51.48383 -0.84123 4779 ft 244 kts 120°
2026-04-20 18:56 51.47687 -0.81661 4382 ft 245 kts 97°
2026-04-20 18:56 51.47632 -0.78998 3976 ft 229 kts 88°
2026-04-20 18:57 51.47630 -0.76530 3638 ft 216 kts 88°
2026-04-20 18:57 51.47636 -0.74262 3363 ft 198 kts 88°
2026-04-20 18:57 51.47646 -0.72145 3116 ft 183 kts 87°
2026-04-20 18:57 51.47656 -0.70179 2836 ft 173 kts 87°
2026-04-20 18:58 51.47666 -0.68278 2584 ft 165 kts 87°
2026-04-20 18:58 51.47675 -0.66491 2364 ft 158 kts 87°
2026-04-20 18:58 51.47684 -0.64730 2158 ft 159 kts 87°
2026-04-20 18:58 51.47693 -0.62963 1945 ft 159 kts 87°
2026-04-20 18:59 51.47702 -0.61222 1724 ft 154 kts 86°
2026-04-20 18:59 51.47708 -0.59539 1503 ft 147 kts 86°
2026-04-20 18:59 51.47719 -0.58034 1304 ft 125 kts 81°
2026-04-20 18:59 51.47774 -0.56729 1114 ft 106 kts 88°
2026-04-20 19:00 51.47733 -0.55553 974 ft 113 kts 90°
2026-04-20 19:00 51.47688 -0.54231 865 ft 125 kts 88°
2026-04-20 19:00 51.47718 -0.52742 664 ft 139 kts 85°
2026-04-20 19:00 51.47741 -0.51166 501 ft 141 kts 87°
2026-04-20 19:01 51.47743 -0.49593 241 ft 140 kts 88°
2026-04-20 19:01 51.47745 -0.48158 94 ft 118 kts 86°
2026-04-20 19:01 51.47754 -0.47029 89 ft 86 kts 88°
2026-04-20 19:01 51.47752 -0.46269 89 ft 37 kts 100°
2026-04-20 19:02 51.47660 -0.46095 89 ft 0 kts 144°
2026-04-20 19:02 51.47648 -0.46081 89 ft 3 kts 145°
2026-04-20 19:02 51.47611 -0.46061 89 ft 7 kts 175°
2026-04-20 19:02 51.47575 -0.46071 89 ft 1 kts 196°
2026-04-20 19:03 51.47550 -0.46074 89 ft 5 kts 171°
2026-04-20 19:03 51.47519 -0.46028 89 ft 7 kts 105°
2026-04-20 19:03 51.47515 -0.45927 89 ft 10 kts 88°
2026-04-20 19:03 51.47515 -0.45791 89 ft 14 kts 96°
2026-04-20 19:04 51.47506 -0.45617 89 ft 17 kts 90°
2026-04-20 19:04 51.47507 -0.45410 89 ft 13 kts 89°
2026-04-20 19:04 51.47509 -0.45244 89 ft 16 kts 90°
2026-04-20 19:04 51.47508 -0.45043 89 ft 19 kts 90°
2026-04-20 19:05 51.47509 -0.44835 89 ft 18 kts 90°
2026-04-20 19:05 51.47507 -0.44636 89 ft 16 kts 98°
2026-04-20 19:05 51.47414 -0.44546 89 ft 18 kts 188°
2026-04-20 19:05 51.47345 -0.44604 89 ft 12 kts 264°
2026-04-20 19:06 51.47343 -0.44714 89 ft 4 kts 269°
2026-04-20 19:06 51.47343 -0.44733 89 ft 0 kts 269°